Location: Sternwarte-Kraichtal
(49.1689°N, 8.6996°E)
Time: 20:53:39
(UTC+02:00)

Vanguard 2 Rocket - Pass Details

Date: 02 June 2022
Orbit: 553 x 3323 km, 32.9° (Epoch: 02 July)

Event Time Altitude Azimuth Distance (km) Brightness Sun altitude
Rises 13:35:56 0° 239° (WSW) 7,013 11.6 62.9°
Reaches altitude 10° 13:40:46 10° 233° (SW) 6,162 11.6 62.8°
Maximum altitude 13:58:57 44° 171° (S) 3,976 11.6 62.1°
Drops below altitude 10° 14:14:14 10° 107° (ESE) 5,250 10.9 61.2°
Sets 14:17:56 0° 101° (E) 5,941 11.0 61.0°
